Location: Asheville, NC
(35.6000°N, 82.5500°W)
Time: 08:56:02
(UTC-05:00)

ISS - Pass Details

Date: 10 January 2018
Orbit: 402 x 407 km, 51.6° (Epoch: 18 January)

Event Time Altitude Azimuth Distance (km) Brightness Sun altitude
Exits shadow 06:42:01 - 344° (NNW) 1,744 -0.9 -11.7°
Reaches altitude 10° 06:43:26 10° 4° (N) 1,462 -1.2 -11.5°
Maximum altitude 06:44:32 11° 24° (NNE) 1,388 -1.1 -11.2°
Drops below altitude 10° 06:45:38 10° 43° (NE) 1,462 -0.7 -11.0°
Sets 06:48:58 0° 80° (E) 2,320 1.2 -10.4°
